Tracking 19794 objects as of 23-Jul-2019
HD Live streaming from Space Station
objects crossing your sky now

KAISTSAT 4

Track KAISTSAT 4 now!
10-day predictions
KAISTSAT 4 is classified as:


NORAD ID: 27945
Int'l Code: 2003-042G
Perigee: 676.3 km
Apogee: 693.2 km
Inclination: 98.1 °
Period: 98.3 minutes
Semi major axis: 7055 km
RCS: 0.503 m2 (medium)
Launch date: September 27, 2003
Source: South Korea (SKOR)
Launch site: PLESETSK MISSILE AND SPACE COMPLEX (PKMTR)

Turkey's first earth observation satellite; part of international Disaster Monitoring Constellation (DMC).
aabbcc
Your satellite tracking list
Your tracking list is empty




NASA's NSSDC Master Catalog

Two Line Element Set (TLE):
1 27945U 03042G   19203.41678263 -.00000011  00000-0  67066-5 0  9991
2 27945  98.0505 333.8240 0011946 356.2820   3.8292 14.64841390845074
Source of the keplerian elements: AFSPC